SCP
0 0 0 0 0 0 0 0 0 0 0 0 0 0 0 0 0 0 0 0 0 0
0 0 0 0 0 0 0 0 0 0 0 0 0 0 0 0 0 0 0 0 0 0
0 0 0 0 0 0 0 0 0 0 0 0 0 0 0 0 0 0 0 0 0 0
0 0 0 0 0 0 0 0 0 0 0 0 0 0 0 0 0 0 0 0 0 0
0 0 0 0 0 0 0 0 0 0 0 0 0 0 0 0 0 0 0 0 0 0
0 0 0 0 0 0 0 0 0 0 0 0 0 0 0 0 0 0 0 0 0 0
0 0 0 0 0 0 0 0 0 0 0 0 0 0 0 0 0 0 0 0 0 0
0 0 0 0 0 0 0 0 0 0 0 0 0 0 0 0 0 0 0 0 0 0
0 0 0 0 0 0 0 0 0 0 0 0 0 0 0 0 0 0 0 0 0 0
0 0 0 0 0 0 0 0 0 0 0 0 0 0 0 0 0 0 0 0 0 0
0 0 0 0 0 0 0 0 0 0 0 0 0 0 0 0 0 0 0 0 0 0
0 0 0 0 0 0 0 0 0 0 0 0 0 0 0 0 0 0 0 0 0 0
0 0 0 0 0 0 0 0 0 0 0 0 0 0 0 0 0 0 0 0 0 0
0 0 0 0 0 0 0 0 0 0 0 0 0 0 0 0 0 0 0 0 0 0
Wind_Speed_500mb
33 35 33 34 37 38 35 37 33 34 33 33 36 41 41 47 39 46 40 33 30 31
24 27 32 34 37 39 37 36 33 31 33 33 37 29 32 36 37 34 29 28 20 17
24 22 23 27 29 31 33 34 35 30 30 24 27 26 25 21 23 21 12 16 14 19
19 20 22 23 24 24 27 24 23 24 19 18 16 15 14 12 12 14 17 17 15 14
12 14 15 17 20 22 20 22 22 20 19 16 16 16 13 12 15 16 14 11 9 8
6 5 5 10 13 16 16 20 21 22 19 19 18 16 16 15 13 11 11 9 6 4
7 8 9 10 12 12 14 13 13 14 15 17 17 16 14 13 12 11 10 8 5 3
12 13 11 13 14 16 16 17 16 15 15 16 18 18 17 15 12 9 5 4 4 4
16 18 18 18 18 17 17 19 20 20 19 20 19 15 11 8 6 6 5 5 5 7
21 20 21 22 22 22 23 24 22 22 19 16 13 13 10 9 6 5 5 6 7 8
22 23 25 25 23 22 22 20 19 19 18 15 14 13 9 7 4 3 4 6 8 10
24 22 22 22 21 20 19 18 17 16 15 12 8 8 7 6 7 7 8 9 9 9
20 21 21 20 20 19 19 16 14 12 10 7 5 3 2 4 7 8 10 10 11 12
20 19 18 18 18 17 16 13 10 7 4 2 3 5 6 8 10 11 13 15 14 15
Wind_Direction_500mb
232 238 238 234 238 240 245 255 254 260 263 263 270 274 266 274 274 284 278 277 270 273
224 231 238 240 245 246 252 254 252 255 263 272 270 265 272 271 273 271 267 269 263 253
224 223 228 231 233 243 243 247 255 255 267 266 263 262 256 262 269 261 236 230 254 233
237 234 231 228 232 238 232 230 242 268 242 246 240 233 228 234 228 223 229 205 189 210
233 232 228 229 227 222 225 231 224 221 222 217 220 213 222 216 198 188 196 210 219 220
178 188 192 213 219 228 228 232 212 206 203 210 197 184 188 192 189 191 183 175 158 152
121 141 172 157 150 153 156 160 156 167 173 174 174 170 168 163 159 153 141 125 114 63
142 150 158 153 164 158 150 158 162 161 164 162 154 145 135 132 129 122 111 90 60 32
150 149 147 150 150 152 156 154 150 145 138 132 133 123 119 118 115 102 84 57 32 14
143 144 144 141 139 139 137 133 135 135 136 140 132 117 107 100 93 73 49 22 2 356
143 145 141 139 140 140 136 135 137 136 135 131 125 115 108 91 86 48 10 353 349 345
150 150 150 148 151 148 141 141 137 132 125 123 110 89 68 41 10 349 334 323 319 311
166 165 165 162 157 150 145 142 139 133 131 132 128 95 29 333 314 308 301 298 300 302
183 179 172 167 163 160 159 160 160 163 180 207 278 298 310 307 301 295 296 293 290 291
Wind_Speed_850mb
33 35 33 34 37 38 35 37 33 34 33 33 36 41 41 47 39 46 40 33 30 31
24 27 32 34 37 39 37 36 33 31 33 33 37 29 32 36 37 34 29 28 20 17
24 22 23 27 29 31 33 34 35 30 30 24 27 26 25 21 23 21 12 16 14 19
19 20 22 23 24 24 27 24 23 24 19 18 16 15 14 12 12 14 17 17 15 14
12 14 15 17 20 22 20 22 22 20 19 16 16 16 13 12 15 16 14 11 9 8
6 5 5 10 13 16 16 20 21 22 19 19 18 16 16 15 13 11 11 9 6 4
7 8 9 10 12 12 14 13 13 14 15 17 17 16 14 13 12 11 10 8 5 3
12 13 11 13 14 16 16 17 16 15 15 16 18 18 17 15 12 9 5 4 4 4
16 18 18 18 18 17 17 19 20 20 19 20 19 15 11 8 6 6 5 5 5 7
21 20 21 22 22 22 23 24 22 22 19 16 13 13 10 9 6 5 5 6 7 8
22 23 25 25 23 22 22 20 19 19 18 15 14 13 9 7 4 3 4 6 8 10
24 22 22 22 21 20 19 18 17 16 15 12 8 8 7 6 7 7 8 9 9 9
20 21 21 20 20 19 19 16 14 12 10 7 5 3 2 4 7 8 10 10 11 12
20 19 18 18 18 17 16 13 10 7 4 2 3 5 6 8 10 11 13 15 14 15
Wind_Direction_850mb
232 238 238 234 238 240 245 255 254 260 263 263 270 274 266 274 274 284 278 277 270 273
224 231 238 240 245 246 252 254 252 255 263 272 270 265 272 271 273 271 267 269 263 253
224 223 228 231 233 243 243 247 255 255 267 266 263 262 256 262 269 261 236 230 254 233
237 234 231 228 232 238 232 230 242 268 242 246 240 233 228 234 228 223 229 205 189 210
233 232 228 229 227 222 225 231 224 221 222 217 220 213 222 216 198 188 196 210 219 220
178 188 192 213 219 228 228 232 212 206 203 210 197 184 188 192 189 191 183 175 158 152
121 141 172 157 150 153 156 160 156 167 173 174 174 170 168 163 159 153 141 125 114 63
142 150 158 153 164 158 150 158 162 161 164 162 154 145 135 132 129 122 111 90 60 32
150 149 147 150 150 152 156 154 150 145 138 132 133 123 119 118 115 102 84 57 32 14
143 144 144 141 139 139 137 133 135 135 136 140 132 117 107 100 93 73 49 22 2 356
143 145 141 139 140 140 136 135 137 136 135 131 125 115 108 91 86 48 10 353 349 345
150 150 150 148 151 148 141 141 137 132 125 123 110 89 68 41 10 349 334 323 319 311
166 165 165 162 157 150 145 142 139 133 131 132 128 95 29 333 314 308 301 298 300 302
183 179 172 167 163 160 159 160 160 163 180 207 278 298 310 307 301 295 296 293 290 291